| time (UTC) | temp F | wind direction | speed knots | gust knots | rain 1hr in | rain 24hr in | rain mn in | humidity % | barometer mb |
| 20260507013053 | 64 | 138 | 1.7 | 7.8 | 0.00 | 0.00 | 0.00 | 79 | 1011.0 |
| 20260507011552 | 64 | 186 | 5.2 | 11.3 | 0.00 | 0.00 | 0.00 | 79 | 1010.9 |
| 20260507010104 | 64 | 196 | 4.3 | 8.7 | 0.00 | 0.00 | 0.00 | 79 | 1011.0 |
| 20260507004601 | 64 | 195 | 2.6 | 7.8 | 0.00 | 0.00 | 0.00 | 79 | 1010.8 |
| 20260507003055 | 64 | 215 | 4.3 | 8.7 | 0.00 | 0.00 | 0.00 | 79 | 1011.0 |
| 20260507001555 | 64 | 199 | 3.5 | 7.8 | 0.00 | 0.00 | 0.00 | 79 | 1010.8 |
| 20260507000051 | 64 | 180 | 4.3 | 8.7 | 0.00 | 0.00 | 0.00 | 79 | 1011.0 |
| 20260506234550 | 64 | 179 | 2.6 | 7.0 | 0.00 | 0.00 | 0.00 | 79 | 1011.1 |
| 20260506233058 | 64 | 187 | 2.6 | 7.0 | 0.00 | 0.00 | 0.00 | 78 | 1011.3 |
| 20260506231558 | 65 | 182 | 1.7 | 7.0 | 0.00 | 0.00 | 0.00 | 78 | 1011.4 |
| 20260506230053 | 65 | 194 | 2.6 | 6.1 | 0.00 | 0.00 | 0.00 | 78 | 1011.4 |
| 20260506224553 | 65 | 186 | 2.6 | 7.0 | 0.00 | 0.00 | 0.00 | 77 | 1011.4 |
| 20260506223052 | 65 | 188 | 2.6 | 7.0 | 0.00 | 0.00 | 0.00 | 77 | 1011.4 |
| 20260506221552 | 65 | 209 | 2.6 | 7.0 | 0.00 | 0.00 | 0.00 | 77 | 1011.3 |
| 20260506220056 | 65 | 256 | 3.5 | 6.1 | 0.00 | 0.00 | 0.00 | 78 | 1011.4 |
| 20260506214604 | 65 | 222 | 2.6 | 6.1 | 0.00 | 0.00 | 0.00 | 78 | 1011.5 |
| 20260506213053 | 65 | 216 | 2.6 | 8.7 | 0.00 | 0.00 | 0.00 | 78 | 1011.8 |
| 20260506211603 | 65 | 232 | 2.6 | 8.7 | 0.00 | 0.00 | 0.00 | 78 | 1011.9 |
| 20260506210056 | 65 | 246 | 4.3 | 8.7 | 0.00 | 0.00 | 0.00 | 78 | 1011.9 |
| 20260506204555 | 65 | 230 | 3.5 | 8.7 | 0.00 | 0.00 | 0.00 | 79 | 1011.7 |
| 20260506203052 | 65 | 229 | 2.6 | 9.6 | 0.00 | 0.00 | 0.00 | 78 | 1011.6 |
| 20260506201556 | 65 | 250 | 4.3 | 8.7 | 0.00 | 0.00 | 0.00 | 78 | 1011.5 |
| 20260506200103 | 65 | 258 | 4.3 | 8.7 | 0.00 | 0.00 | 0.00 | 78 | 1011.1 |
| 20260506194605 | 65 | 205 | 3.5 | 7.8 | 0.00 | 0.00 | 0.00 | 78 | 1011.0 |
| 20260506193056 | 65 | 244 | 4.3 | 10.4 | 0.00 | 0.00 | 0.00 | 77 | 1010.8 |
| 20260506191605 | 66 | 225 | 3.5 | 8.7 | 0.00 | 0.00 | 0.00 | 77 | 1010.8 |
| 20260506190056 | 66 | 242 | 3.5 | 9.6 | 0.00 | 0.00 | 0.00 | 77 | 1010.7 |
| 20260506184554 | 66 | 221 | 4.3 | 11.3 | 0.00 | 0.00 | 0.00 | 78 | 1010.5 |
| 20260506183053 | 66 | 233 | 4.3 | 8.7 | 0.00 | 0.00 | 0.00 | 77 | 1010.4 |
| 20260506181601 | 66 | 243 | 4.3 | 9.6 | 0.00 | 0.00 | 0.00 | 77 | 1010.2 |
| 20260506180115 | 66 | 219 | 4.3 | 8.7 | 0.00 | 0.00 | 0.00 | 77 | 1010.3 |
| 20260506174554 | 67 | 234 | 6.1 | 13.0 | 0.00 | 0.00 | 0.00 | 77 | 1010.2 |
| 20260506173119 | 67 | 249 | 5.2 | 11.3 | 0.00 | 0.00 | 0.00 | 77 | 1010.3 |
| 20260506171553 | 67 | 227 | 4.3 | 13.0 | 0.00 | 0.00 | 0.00 | 76 | 1010.3 |
| 20260506170053 | 67 | 210 | 6.1 | 12.2 | 0.00 | 0.00 | 0.00 | 76 | 1010.1 |
| 20260506164551 | 67 | 257 | 5.2 | 13.0 | 0.00 | 0.00 | 0.00 | 76 | 1010.2 |
| 20260506163100 | 67 | 234 | 6.1 | 13.9 | 0.00 | 0.00 | 0.00 | 74 | 1010.2 |
| 20260506161555 | 67 | 228 | 7.8 | 13.0 | 0.00 | 0.00 | 0.00 | 74 | 1010.2 |
| 20260506160053 | 67 | 207 | 6.1 | 15.6 | 0.00 | 0.00 | 0.00 | 75 | 1010.3 |
| 20260506154557 | 67 | 222 | 7.0 | 13.9 | 0.00 | 0.00 | 0.00 | 73 | 1010.2 |
| 20260506153057 | 68 | 231 | 8.7 | 16.5 | 0.00 | 0.00 | 0.00 | 72 | 1010.2 |
| 20260506151554 | 68 | 190 | 7.8 | 15.6 | 0.00 | 0.00 | 0.00 | 72 | 1010.3 |
| 20260506150100 | 68 | 192 | 8.7 | 16.5 | 0.00 | 0.00 | 0.00 | 71 | 1010.3 |
| 20260506144605 | 67 | 248 | 9.6 | 17.4 | 0.00 | 0.00 | 0.00 | 73 | 1010.5 |
| 20260506143053 | 69 | 244 | 6.1 | 12.2 | 0.00 | 0.00 | 0.00 | 72 | 1010.4 |
| 20260506141555 | 68 | 275 | 7.0 | 13.0 | 0.00 | 0.00 | 0.00 | 73 | 1010.4 |
| 20260506140052 | 69 | 235 | 7.0 | 12.2 | 0.00 | 0.00 | 0.00 | 72 | 1010.7 |
| 20260506134554 | 69 | 221 | 6.1 | 12.2 | 0.00 | 0.00 | 0.00 | 73 | 1010.6 |
| 20260506133101 | 69 | 229 | 7.0 | 13.0 | 0.00 | 0.00 | 0.00 | 73 | 1010.7 |
| 20260506131550 | 69 | 257 | 6.1 | 11.3 | 0.00 | 0.00 | 0.00 | 72 | 1010.7 |
| 20260506130053 | 68 | 242 | 7.0 | 11.3 | 0.00 | 0.00 | 0.00 | 73 | 1010.8 |
| 20260506124552 | 68 | 231 | 7.8 | 12.2 | 0.00 | 0.00 | 0.00 | 73 | 1011.0 |
| 20260506123052 | 69 | 217 | 7.0 | 12.2 | 0.00 | 0.00 | 0.00 | 72 | 1011.0 |
| 20260506121549 | 69 | 222 | 7.0 | 12.2 | 0.00 | 0.00 | 0.00 | 72 | 1011.2 |
| 20260506120055 | 68 | 236 | 7.8 | 11.3 | 0.00 | 0.00 | 0.00 | 73 | 1011.3 |
| 20260506114552 | 69 | 233 | 6.1 | 12.2 | 0.00 | 0.00 | 0.00 | 72 | 1011.3 |
| 20260506113052 | 70 | 248 | 7.0 | 16.5 | 0.00 | 0.00 | 0.00 | 72 | 1011.4 |
| 20260506111552 | 70 | 200 | 8.7 | 18.2 | 0.00 | 0.00 | 0.00 | 70 | 1011.5 |
| 20260506110052 | 69 | 217 | 8.7 | 14.8 | 0.00 | 0.00 | 0.00 | 71 | 1011.5 |
| 20260506104555 | 69 | 209 | 7.0 | 15.6 | 0.00 | 0.00 | 0.00 | 70 | 1011.5 |
| 20260506103049 | 69 | 194 | 7.8 | 13.9 | 0.00 | 0.00 | 0.00 | 71 | 1011.6 |
| 20260506101548 | 69 | 240 | 6.1 | 15.6 | 0.00 | 0.00 | 0.00 | 70 | 1011.6 |
| 20260506100053 | 70 | 234 | 6.1 | 16.5 | 0.00 | 0.00 | 0.00 | 69 | 1011.7 |
| 20260506094605 | 69 | 213 | 7.0 | 13.9 | 0.00 | 0.00 | 0.00 | 69 | 1011.4 |
| 20260506093049 | 70 | 248 | 7.8 | 14.8 | 0.00 | 0.00 | 0.00 | 68 | 1011.3 |
| 20260506091550 | 70 | 166 | 7.0 | 15.6 | 0.00 | 0.00 | 0.00 | 68 | 1011.1 |
| 20260506090052 | 69 | 198 | 7.0 | 17.4 | 0.00 | 0.00 | 0.00 | 67 | 1010.9 |
| 20260506084559 | 69 | 180 | 6.1 | 13.0 | 0.00 | 0.00 | 0.00 | 68 | 1010.9 |
| 20260506083058 | 68 | 191 | 7.0 | 17.4 | 0.00 | 0.00 | 0.00 | 69 | 1010.8 |
| 20260506081552 | 68 | 209 | 7.8 | 14.8 | 0.00 | 0.00 | 0.00 | 69 | 1011.0 |
| 20260506080107 | 68 | 187 | 6.1 | 12.2 | 0.00 | 0.00 | 0.00 | 71 | 1010.8 |
| 20260506073106 | 67 | 213 | 4.3 | 13.0 | 0.00 | 0.00 | 0.00 | 74 | 1010.9 |
| 20260506071553 | 66 | 218 | 6.1 | 14.8 | 0.00 | 0.00 | 0.00 | 75 | 1010.8 |
| 20260506061604 | 62 | 113 | 1.7 | 5.2 | 0.00 | 0.00 | 0.00 | 68 | 1010.8 |
| 20260506044554 | 61 | 131 | 1.7 | 6.1 | 0.00 | 0.00 | 0.00 | 67 | 1009.8 |
| 20260506043053 | 61 | 98 | 2.6 | 6.1 | 0.00 | 0.00 | 0.00 | 69 | 1009.6 |
| 20260506041558 | 61 | 124 | 0.0 | 3.5 | 0.00 | 0.00 | 0.00 | 73 | 1009.8 |
| 20260506040056 | 62 | 117 | 0.9 | 5.2 | 0.00 | 0.00 | 0.00 | 75 | 1009.7 |
| 20260506034558 | 62 | 0 | 0.0 | 0.0 | 0.00 | 0.00 | 0.00 | 76 | 1009.9 |
| 20260506033122 | 62 | 0 | 0.0 | 0.0 | 0.00 | 0.00 | 0.00 | 76 | 1009.8 |
| 20260506031553 | 62 | 0 | 0.0 | 0.0 | 0.00 | 0.00 | 0.00 | 77 | 1010.0 |
| 20260506030100 | 63 | 0 | 0.0 | 0.0 | 0.00 | 0.00 | 0.00 | 77 | 1009.8 |
| 20260506024614 | 63 | 0 | 0.0 | 2.6 | 0.00 | 0.00 | 0.00 | 77 | 1009.9 |
| 20260506023103 | 63 | 113 | 0.9 | 2.6 | 0.00 | 0.00 | 0.00 | 78 | 1009.9 |
| 20260506021558 | 63 | 114 | 0.0 | 2.6 | 0.00 | 0.00 | 0.00 | 77 | 1009.9 |
| 20260506020055 | 63 | 0 | 0.0 | 0.0 | 0.00 | 0.00 | 0.00 | 77 | 1009.9 |
| 20260506014553 | 63 | 0 | 0.0 | 0.0 | 0.00 | 0.00 | 0.00 | 77 | 1010.0 |